User: anonymous   Login
Location: Unspecified
(0.0000°N, 0.0000°E)
Time: 19:11:33
(UTC+01:00)
Language:

Cosmos 1943 Rocket - Orbit

View from above orbital plane
View from above orbital plane
View from above satellite
View from above satellite

Ground track
Ground track

The orbit data is extracted from the following two-line orbital elements,

1 19120U 88039B   18049.78810886  .00000038  00000-0  40837-4 0  9996
2 19120  71.0154 163.8637 0021782 176.1438 183.9859 14.19181495541373
Epoch (UTC): 18 February 2018 18:54:52
Eccentricity: 0.0021782
inclination: 71.0154°
perigee height: 812 km
apogee height: 844 km
right ascension of ascending node: 163.8637°
argument of perigee: 176.1438°
revolutions per day: 14.19181495
mean anomaly at epoch: 183.9859°
orbit number at epoch: 54137

The dashed part of the orbit path shows where the satellite is in the earth's shadow,  

DLR